Time,TemperatureF,DewpointF,PressureIn,WindDirection,WindDirectionDegrees,WindSpeedMPH,WindSpeedGustMPH,Humidity,HourlyPrecipIn,Conditions,Clouds,dailyrainin,SolarRadiationWatts/m^2,SoftwareType,DateUTC
2013-02-02 00:01:00,11.5,6.0,30.39,WSW,244,1.0,2.0,78,0.00,,,0.00,0,Wunderground v.1.15,2013-02-02 05:01:00,
2013-02-02 00:02:00,11.5,6.0,30.39,NW,306,1.0,2.0,78,0.00,,,0.00,0,Wunderground v.1.15,2013-02-02 05:02:00,
2013-02-02 00:04:00,11.4,5.9,30.38,WSW,251,1.0,3.0,78,0.00,,,0.00,0,Wunderground v.1.15,2013-02-02 05:04:00,
2013-02-02 00:06:00,11.4,5.6,30.38,WSW,252,2.0,3.0,77,0.00,,,0.00,0,Wunderground v.1.15,2013-02-02 05:06:00,
2013-02-02 00:12:00,11.4,5.6,30.39,West,267,2.0,3.0,77,0.00,,,0.00,0,Wunderground v.1.15,2013-02-02 05:12:00,
2013-02-02 00:18:00,11.3,5.5,30.38,West,271,2.0,3.0,77,0.00,,,0.00,0,Wunderground v.1.15,2013-02-02 05:18:00,
2013-02-02 00:24:00,11.2,5.4,30.39,WNW,295,1.0,2.0,77,0.00,,,0.00,0,Wunderground v.1.15,2013-02-02 05:24:00,
2013-02-02 00:30:00,11.0,5.2,30.39,SW,226,1.0,1.0,77,0.00,,,0.00,0,Wunderground v.1.15,2013-02-02 05:30:00,
2013-02-02 00:36:00,11.0,5.2,30.39,West,271,2.0,10.0,77,0.00,,,0.00,0,Wunderground v.1.15,2013-02-02 05:36:00,
2013-02-02 00:42:00,11.0,4.9,30.38,SSW,211,2.0,10.0,76,0.00,,,0.00,0,Wunderground v.1.15,2013-02-02 05:42:00,
2013-02-02 00:48:00,11.0,4.9,30.38,West,278,2.0,10.0,76,0.00,,,0.00,0,Wunderground v.1.15,2013-02-02 05:48:00,
2013-02-02 00:54:00,10.9,4.5,30.38,WNW,298,2.0,10.0,75,0.00,,,0.00,0,Wunderground v.1.15,2013-02-02 05:54:00,
2013-02-02 01:00:00,10.8,4.4,30.38,West,275,1.0,10.0,75,0.00,,,0.00,0,Wunderground v.1.15,2013-02-02 06:00:00,
2013-02-02 01:06:00,10.9,4.2,30.38,SW,229,1.0,10.0,74,0.00,,,0.00,0,Wunderground v.1.15,2013-02-02 06:06:00,
2013-02-02 01:12:00,10.7,4.0,30.37,WSW,246,1.0,3.0,74,0.00,,,0.00,0,Wunderground v.1.15,2013-02-02 06:12:00,
2013-02-02 01:18:00,10.7,4.0,30.38,West,261,1.0,10.0,74,0.00,,,0.00,0,Wunderground v.1.15,2013-02-02 06:18:00,
2013-02-02 01:24:00,10.6,3.9,30.37,West,270,2.0,10.0,74,0.00,,,0.00,0,Wunderground v.1.15,2013-02-02 06:24:00,
2013-02-02 01:30:00,10.6,3.9,30.37,WNW,302,2.0,10.0,74,0.00,,,0.00,0,Wunderground v.1.15,2013-02-02 06:30:00,
2013-02-02 01:36:00,10.5,3.8,30.37,West,267,1.0,10.0,74,0.00,,,0.00,0,Wunderground v.1.15,2013-02-02 06:36:00,
2013-02-02 01:42:00,10.3,3.7,30.37,WSW,252,1.0,10.0,74,0.00,,,0.00,0,Wunderground v.1.15,2013-02-02 06:42:00,
2013-02-02 01:48:00,10.1,3.8,30.37,WSW,254,1.0,10.0,75,0.00,,,0.00,0,Wunderground v.1.15,2013-02-02 06:48:00,
2013-02-02 01:54:00,10.0,3.7,30.37,WNW,282,1.0,10.0,75,0.00,,,0.00,0,Wunderground v.1.15,2013-02-02 06:54:00,
2013-02-02 02:00:00,10.0,3.7,30.38,WNW,287,1.0,1.0,75,0.00,,,0.00,0,Wunderground v.1.15,2013-02-02 07:00:00,
2013-02-02 02:06:00,10.0,3.7,30.38,WSW,257,1.0,10.0,75,0.00,,,0.00,0,Wunderground v.1.15,2013-02-02 07:06:00,
2013-02-02 02:12:00,10.0,3.7,30.38,WSW,248,2.0,10.0,75,0.00,,,0.00,0,Wunderground v.1.15,2013-02-02 07:12:00,
2013-02-02 02:18:00,10.0,3.7,30.38,West,280,2.0,10.0,75,0.00,,,0.00,0,Wunderground v.1.15,2013-02-02 07:18:00,
2013-02-02 02:24:00,10.1,4.0,30.38,West,267,2.0,10.0,76,0.00,,,0.00,0,Wunderground v.1.15,2013-02-02 07:24:00,
2013-02-02 02:30:00,10.4,4.0,30.38,WSW,257,3.0,10.0,75,0.00,,,0.00,0,Wunderground v.1.15,2013-02-02 07:30:00,
2013-02-02 02:36:00,10.7,4.3,30.37,WNW,293,3.0,10.0,75,0.00,,,0.00,0,Wunderground v.1.15,2013-02-02 07:36:00,
2013-02-02 02:42:00,10.8,4.7,30.37,West,267,2.0,10.0,76,0.00,,,0.00,0,Wunderground v.1.15,2013-02-02 07:42:00,
2013-02-02 02:48:00,10.9,4.5,30.37,WSW,237,3.0,10.0,75,0.00,,,0.00,0,Wunderground v.1.15,2013-02-02 07:48:00,
2013-02-02 02:54:00,11.0,4.9,30.37,SW,236,3.0,10.0,76,0.00,,,0.00,0,Wunderground v.1.15,2013-02-02 07:54:00,
2013-02-02 03:00:00,11.1,5.0,30.37,WNW,295,5.0,5.0,76,0.00,,,0.00,0,Wunderground v.1.15,2013-02-02 08:00:00,
2013-02-02 03:06:00,11.2,5.1,30.36,West,260,5.0,10.0,76,0.00,,,0.00,0,Wunderground v.1.15,2013-02-02 08:06:00,
2013-02-02 03:12:00,11.2,5.1,30.36,NW,319,4.0,10.0,76,0.00,,,0.00,0,Wunderground v.1.15,2013-02-02 08:12:00,
2013-02-02 03:18:00,11.1,5.0,30.36,West,259,4.0,10.0,76,0.00,,,0.00,0,Wunderground v.1.15,2013-02-02 08:18:00,
2013-02-02 03:24:00,11.2,5.1,30.36,West,277,3.0,10.0,76,0.00,,,0.00,0,Wunderground v.1.15,2013-02-02 08:24:00,
2013-02-02 03:30:00,11.2,5.1,30.36,WSW,240,4.0,4.0,76,0.00,,,0.00,0,Wunderground v.1.15,2013-02-02 08:30:00,
2013-02-02 03:36:00,11.2,4.8,30.36,WNW,289,5.0,10.0,75,0.00,,,0.00,0,Wunderground v.1.15,2013-02-02 08:36:00,
2013-02-02 03:42:00,11.3,4.9,30.36,WSW,239,5.0,7.0,75,0.00,,,0.00,0,Wunderground v.1.15,2013-02-02 08:42:00,
2013-02-02 03:48:00,11.3,4.9,30.36,SSW,200,5.0,10.0,75,0.00,,,0.00,0,Wunderground v.1.15,2013-02-02 08:48:00,
2013-02-02 03:54:00,11.4,5.0,30.36,WNW,296,4.0,10.0,75,0.00,,,0.00,0,Wunderground v.1.15,2013-02-02 08:54:00,
2013-02-02 04:00:00,11.4,5.0,30.35,WNW,299,5.0,10.0,75,0.00,,,0.00,0,Wunderground v.1.15,2013-02-02 09:00:00,
2013-02-02 04:06:00,11.4,5.0,30.35,WSW,238,4.0,10.0,75,0.00,,,0.00,0,Wunderground v.1.15,2013-02-02 09:06:00,
2013-02-02 04:12:00,11.4,5.0,30.35,WSW,239,4.0,10.0,75,0.00,,,0.00,0,Wunderground v.1.15,2013-02-02 09:12:00,
2013-02-02 04:18:00,11.4,5.0,30.35,WSW,251,4.0,10.0,75,0.00,,,0.00,0,Wunderground v.1.15,2013-02-02 09:18:00,
2013-02-02 04:24:00,11.5,4.8,30.35,WSW,255,3.0,10.0,74,0.00,,,0.00,0,Wunderground v.1.15,2013-02-02 09:24:00,
2013-02-02 04:30:00,11.5,4.8,30.35,West,263,4.0,4.0,74,0.00,,,0.00,0,Wunderground v.1.15,2013-02-02 09:30:00,
2013-02-02 04:36:00,11.5,4.8,30.35,SW,236,4.0,10.0,74,0.00,,,0.00,0,Wunderground v.1.15,2013-02-02 09:36:00,
2013-02-02 04:42:00,11.5,4.8,30.35,WNW,286,3.0,10.0,74,0.00,,,0.00,0,Wunderground v.1.15,2013-02-02 09:42:00,
2013-02-02 04:48:00,11.6,4.9,30.35,WNW,285,3.0,10.0,74,0.00,,,0.00,0,Wunderground v.1.15,2013-02-02 09:48:00,
2013-02-02 04:54:00,11.6,4.9,30.34,SW,228,3.0,10.0,74,0.00,,,0.00,0,Wunderground v.1.15,2013-02-02 09:54:00,
2013-02-02 05:00:00,11.6,4.9,30.34,West,262,4.0,4.0,74,0.00,,,0.00,0,Wunderground v.1.15,2013-02-02 10:00:00,
2013-02-02 05:06:00,11.6,5.2,30.34,SW,223,3.0,10.0,75,0.00,,,0.00,0,Wunderground v.1.15,2013-02-02 10:06:00,
2013-02-02 05:12:00,11.6,5.2,30.34,WNW,288,3.0,10.0,75,0.00,,,0.00,0,Wunderground v.1.15,2013-02-02 10:12:00,
2013-02-02 05:18:00,11.6,5.2,30.34,SW,225,3.0,10.0,75,0.00,,,0.00,0,Wunderground v.1.15,2013-02-02 10:18:00,
2013-02-02 05:24:00,11.7,5.3,30.34,NW,316,3.0,10.0,75,0.00,,,0.00,0,Wunderground v.1.15,2013-02-02 10:24:00,
2013-02-02 05:30:00,11.7,5.6,30.34,WSW,248,2.0,2.0,76,0.00,,,0.00,0,Wunderground v.1.15,2013-02-02 10:30:00,
2013-02-02 05:36:00,11.7,5.3,30.34,West,265,2.0,10.0,75,0.00,,,0.00,0,Wunderground v.1.15,2013-02-02 10:36:00,
2013-02-02 05:42:00,11.7,5.6,30.34,WNW,287,2.0,10.0,76,0.00,,,0.00,0,Wunderground v.1.15,2013-02-02 10:42:00,
2013-02-02 05:48:00,11.7,5.6,30.34,West,268,2.0,10.0,76,0.00,,,0.00,0,Wunderground v.1.15,2013-02-02 10:48:00,
2013-02-02 05:54:00,11.8,5.7,30.33,WSW,256,2.0,10.0,76,0.00,,,0.00,0,Wunderground v.1.15,2013-02-02 10:54:00,
2013-02-02 06:00:00,11.8,5.7,30.34,WNW,296,3.0,10.0,76,0.00,,,0.00,0,Wunderground v.1.15,2013-02-02 11:00:00,
2013-02-02 06:06:00,11.8,5.7,30.34,SW,228,3.0,10.0,76,0.00,,,0.00,0,Wunderground v.1.15,2013-02-02 11:06:00,
2013-02-02 06:12:00,11.9,5.8,30.33,WSW,240,3.0,10.0,76,0.00,,,0.00,0,Wunderground v.1.15,2013-02-02 11:12:00,
2013-02-02 06:18:00,11.9,5.5,30.33,West,259,3.0,10.0,75,0.00,,,0.00,0,Wunderground v.1.15,2013-02-02 11:18:00,
2013-02-02 06:24:00,11.9,5.8,30.33,WSW,243,4.0,10.0,76,0.00,,,0.00,0,Wunderground v.1.15,2013-02-02 11:24:00,
2013-02-02 06:30:00,11.9,6.4,30.33,SSW,200,2.0,10.0,78,0.00,,,0.00,0,Wunderground v.1.15,2013-02-02 11:30:00,
2013-02-02 06:36:00,11.8,6.5,30.33,SW,220,2.0,10.0,79,0.00,,,0.00,0,Wunderground v.1.15,2013-02-02 11:36:00,
2013-02-02 06:42:00,11.7,6.7,30.33,SSW,199,2.0,3.0,80,0.00,,,0.00,0,Wunderground v.1.15,2013-02-02 11:42:00,
2013-02-02 06:48:00,11.6,6.9,30.33,SSW,212,2.0,10.0,81,0.00,,,0.00,0,Wunderground v.1.15,2013-02-02 11:48:00,
2013-02-02 06:54:00,11.5,6.8,30.33,SW,215,2.0,10.0,81,0.00,,,0.00,0,Wunderground v.1.15,2013-02-02 11:54:00,
2013-02-02 07:00:00,11.4,7.0,30.33,West,261,2.0,10.0,82,0.00,,,0.00,0,Wunderground v.1.15,2013-02-02 12:00:00,
2013-02-02 07:06:00,11.4,6.7,30.33,SSW,205,2.0,10.0,81,0.00,,,0.00,0,Wunderground v.1.15,2013-02-02 12:06:00,
2013-02-02 07:12:00,11.4,6.7,30.32,SW,236,2.0,10.0,81,0.00,,,0.00,0,Wunderground v.1.15,2013-02-02 12:12:00,
2013-02-02 07:18:00,11.4,6.7,30.33,WSW,237,2.0,10.0,81,0.00,,,0.00,5,Wunderground v.1.15,2013-02-02 12:18:00,
2013-02-02 07:24:00,11.4,6.7,30.32,SW,214,1.0,10.0,81,0.00,,,0.00,5,Wunderground v.1.15,2013-02-02 12:24:00,
2013-02-02 07:30:00,11.4,6.7,30.32,SSW,207,2.0,10.0,81,0.00,,,0.00,9,Wunderground v.1.15,2013-02-02 12:30:00,
2013-02-02 07:36:00,11.5,6.8,30.32,SSW,205,2.0,10.0,81,0.00,,,0.00,14,Wunderground v.1.15,2013-02-02 12:36:00,
2013-02-02 07:42:00,11.6,6.6,30.32,WNW,293,2.0,10.0,80,0.00,,,0.00,16,Wunderground v.1.15,2013-02-02 12:42:00,
2013-02-02 07:48:00,11.8,6.8,30.32,WSW,239,2.0,10.0,80,0.00,,,0.00,19,Wunderground v.1.15,2013-02-02 12:48:00,
2013-02-02 07:54:00,11.9,6.9,30.33,SSW,211,2.0,10.0,80,0.00,,,0.00,18,Wunderground v.1.15,2013-02-02 12:54:00,
2013-02-02 08:00:00,12.0,7.0,30.33,SW,230,2.0,10.0,80,0.00,,,0.00,30,Wunderground v.1.15,2013-02-02 13:00:00,
2013-02-02 08:06:00,12.1,6.8,30.33,SSW,213,4.0,10.0,79,0.00,,,0.00,35,Wunderground v.1.15,2013-02-02 13:06:00,
2013-02-02 08:12:00,12.2,6.9,30.32,SSW,202,4.0,10.0,79,0.00,,,0.00,33,Wunderground v.1.15,2013-02-02 13:12:00,
2013-02-02 08:18:00,12.3,6.7,30.32,NW,306,2.0,10.0,78,0.00,,,0.00,28,Wunderground v.1.15,2013-02-02 13:18:00,
2013-02-02 08:24:00,12.3,6.7,30.32,South,183,3.0,10.0,78,0.00,,,0.00,37,Wunderground v.1.15,2013-02-02 13:24:00,
2013-02-02 08:30:00,12.2,6.4,30.32,SW,232,5.0,10.0,77,0.00,,,0.00,107,Wunderground v.1.15,2013-02-02 13:30:00,
2013-02-02 08:36:00,12.5,6.7,30.32,WNW,284,4.0,10.0,77,0.00,,,0.00,139,Wunderground v.1.15,2013-02-02 13:36:00,
2013-02-02 08:42:00,12.6,6.5,30.32,WSW,246,4.0,5.0,76,0.00,,,0.00,127,Wunderground v.1.15,2013-02-02 13:42:00,
2013-02-02 08:48:00,12.7,6.6,30.32,West,261,5.0,10.0,76,0.00,,,0.00,76,Wunderground v.1.15,2013-02-02 13:48:00,
2013-02-02 08:54:00,12.8,6.7,30.31,WNW,291,4.0,10.0,76,0.00,,,0.00,104,Wunderground v.1.15,2013-02-02 13:54:00,
2013-02-02 09:00:00,12.8,6.7,30.31,WSW,241,4.0,4.0,76,0.00,,,0.00,111,Wunderground v.1.15,2013-02-02 14:00:00,
2013-02-02 09:06:00,13.2,7.0,30.31,SSE,167,4.0,10.0,76,0.00,,,0.00,134,Wunderground v.1.15,2013-02-02 14:06:00,
2013-02-02 09:12:00,13.3,6.9,30.31,West,274,4.0,10.0,75,0.00,,,0.00,155,Wunderground v.1.15,2013-02-02 14:12:00,
2013-02-02 09:18:00,13.4,7.0,30.30,West,281,4.0,10.0,75,0.00,,,0.00,156,Wunderground v.1.15,2013-02-02 14:18:00,
2013-02-02 09:24:00,13.5,7.3,30.30,SW,221,5.0,10.0,76,0.00,,,0.00,190,Wunderground v.1.15,2013-02-02 14:24:00,
2013-02-02 09:30:00,13.7,7.5,30.29,WSW,257,4.0,4.0,76,0.00,,,0.00,167,Wunderground v.1.15,2013-02-02 14:30:00,
2013-02-02 09:36:00,13.8,7.9,30.30,WSW,252,4.0,10.0,77,0.00,,,0.00,214,Wunderground v.1.15,2013-02-02 14:36:00,
2013-02-02 09:42:00,14.0,8.1,30.30,SSW,205,3.0,6.0,77,0.00,,,0.00,223,Wunderground v.1.15,2013-02-02 14:42:00,
2013-02-02 09:48:00,14.1,8.2,30.29,SSW,209,4.0,10.0,77,0.00,,,0.00,246,Wunderground v.1.15,2013-02-02 14:48:00,
2013-02-02 09:54:00,14.5,8.9,30.29,WSW,241,3.0,10.0,78,0.00,,,0.00,230,Wunderground v.1.15,2013-02-02 14:54:00,
2013-02-02 10:00:00,14.6,8.7,30.29,South,171,4.0,10.0,77,0.00,,,0.00,211,Wunderground v.1.15,2013-02-02 15:00:00,
2013-02-02 10:06:00,14.6,8.4,30.29,SSE,168,4.0,10.0,76,0.00,,,0.00,202,Wunderground v.1.15,2013-02-02 15:06:00,
2013-02-02 10:12:00,14.5,8.6,30.29,West,261,5.0,6.0,77,0.00,,,0.00,186,Wunderground v.1.15,2013-02-02 15:12:00,
2013-02-02 10:18:00,14.6,9.0,30.29,SSW,194,5.0,10.0,78,0.00,,,0.00,211,Wunderground v.1.15,2013-02-02 15:18:00,
2013-02-02 10:24:00,14.7,9.4,30.28,SW,217,4.0,10.0,79,0.00,,,0.00,246,Wunderground v.1.15,2013-02-02 15:24:00,
2013-02-02 10:30:00,15.3,10.2,30.28,SSW,205,4.0,10.0,80,0.00,,,0.00,294,Wunderground v.1.15,2013-02-02 15:30:00,
2013-02-02 10:36:00,15.5,9.6,30.28,South,190,4.0,10.0,77,0.00,,,0.00,255,Wunderground v.1.15,2013-02-02 15:36:00,
2013-02-02 10:42:00,15.5,9.3,30.28,SSW,198,6.0,10.0,76,0.00,,,0.00,255,Wunderground v.1.15,2013-02-02 15:42:00,
2013-02-02 10:48:00,15.8,9.9,30.28,WSW,254,4.0,10.0,77,0.00,,,0.00,294,Wunderground v.1.15,2013-02-02 15:48:00,
2013-02-02 10:54:00,16.0,10.1,30.28,SSW,207,4.0,10.0,77,0.00,,,0.00,265,Wunderground v.1.15,2013-02-02 15:54:00,
2013-02-02 11:00:00,16.0,10.1,30.28,WSW,248,4.0,4.0,77,0.00,,,0.00,281,Wunderground v.1.15,2013-02-02 16:00:00,
2013-02-02 11:06:00,16.3,10.4,30.27,SSW,192,4.0,10.0,77,0.00,,,0.00,267,Wunderground v.1.15,2013-02-02 16:06:00,
2013-02-02 11:12:00,16.2,10.0,30.26,WSW,248,4.0,10.0,76,0.00,,,0.00,232,Wunderground v.1.15,2013-02-02 16:12:00,
2013-02-02 11:18:00,16.4,10.2,30.26,WSW,248,4.0,10.0,76,0.00,,,0.00,288,Wunderground v.1.15,2013-02-02 16:18:00,
2013-02-02 11:24:00,16.6,10.3,30.25,SW,225,4.0,10.0,76,0.00,,,0.00,285,Wunderground v.1.15,2013-02-02 16:24:00,
2013-02-02 11:30:00,16.8,9.9,30.25,SW,224,4.0,10.0,74,0.00,,,0.00,248,Wunderground v.1.15,2013-02-02 16:30:00,
2013-02-02 11:36:00,17.0,10.7,30.24,NNW,344,4.0,10.0,76,0.00,,,0.00,288,Wunderground v.1.15,2013-02-02 16:36:00,
2013-02-02 11:42:00,17.4,10.8,30.24,SW,222,4.0,10.0,75,0.00,,,0.00,272,Wunderground v.1.15,2013-02-02 16:42:00,
2013-02-02 11:48:00,17.3,10.4,30.24,SSW,211,4.0,10.0,74,0.00,,,0.00,316,Wunderground v.1.15,2013-02-02 16:48:00,
2013-02-02 11:54:00,17.6,10.7,30.23,WSW,244,5.0,10.0,74,0.00,,,0.00,329,Wunderground v.1.15,2013-02-02 16:54:00,
2013-02-02 12:00:00,17.5,11.5,30.22,SW,227,4.0,10.0,77,0.00,,,0.00,274,Wunderground v.1.15,2013-02-02 17:00:00,
2013-02-02 12:06:00,17.6,11.6,30.22,SSW,196,3.0,10.0,77,0.00,,,0.00,253,Wunderground v.1.15,2013-02-02 17:06:00,
2013-02-02 12:12:00,17.7,11.7,30.21,South,191,4.0,6.0,77,0.00,,,0.00,283,Wunderground v.1.15,2013-02-02 17:12:00,
2013-02-02 12:18:00,17.8,12.4,30.21,WNW,285,4.0,10.0,79,0.00,,,0.00,316,Wunderground v.1.15,2013-02-02 17:18:00,
2013-02-02 12:24:00,18.1,12.7,30.20,West,270,2.0,10.0,79,0.00,,,0.00,339,Wunderground v.1.15,2013-02-02 17:24:00,
2013-02-02 12:30:00,18.3,12.9,30.19,South,182,3.0,10.0,79,0.00,,,0.00,290,Wunderground v.1.15,2013-02-02 17:30:00,
2013-02-02 12:36:00,18.5,12.8,30.19,SW,236,3.0,10.0,78,0.00,,,0.00,322,Wunderground v.1.15,2013-02-02 17:36:00,
2013-02-02 12:42:00,19.0,12.7,30.19,South,179,2.0,10.0,76,0.00,,,0.00,281,Wunderground v.1.15,2013-02-02 17:42:00,
2013-02-02 12:48:00,18.9,12.6,30.18,WSW,246,3.0,10.0,76,0.00,,,0.00,276,Wunderground v.1.15,2013-02-02 17:48:00,
2013-02-02 12:54:00,19.1,13.1,30.18,SW,234,4.0,10.0,77,0.00,,,0.00,274,Wunderground v.1.15,2013-02-02 17:54:00,
2013-02-02 13:00:00,18.9,13.2,30.18,SSW,200,4.0,10.0,78,0.00,,,0.00,232,Wunderground v.1.15,2013-02-02 18:00:00,
2013-02-02 13:06:00,19.0,13.6,30.17,SSW,200,4.0,10.0,79,0.00,,,0.00,214,Wunderground v.1.15,2013-02-02 18:06:00,
2013-02-02 13:12:00,19.0,13.8,30.17,WSW,238,4.0,10.0,80,0.00,,,0.00,204,Wunderground v.1.15,2013-02-02 18:12:00,
2013-02-02 13:18:00,19.0,14.1,30.17,SW,224,4.0,10.0,81,0.00,,,0.00,253,Wunderground v.1.15,2013-02-02 18:18:00,
2013-02-02 13:24:00,19.3,14.4,30.16,SSW,195,3.0,10.0,81,0.00,,,0.00,234,Wunderground v.1.15,2013-02-02 18:24:00,
2013-02-02 13:30:00,19.4,14.2,30.16,SSW,208,3.0,10.0,80,0.00,,,0.00,214,Wunderground v.1.15,2013-02-02 18:30:00,
2013-02-02 13:36:00,19.4,14.5,30.16,SSW,205,3.0,10.0,81,0.00,,,0.00,204,Wunderground v.1.15,2013-02-02 18:36:00,
2013-02-02 13:42:00,19.4,14.5,30.15,SW,232,3.0,10.0,81,0.00,,,0.00,185,Wunderground v.1.15,2013-02-02 18:42:00,
2013-02-02 13:48:00,19.4,14.8,30.15,SW,221,3.0,10.0,82,0.00,,,0.00,174,Wunderground v.1.15,2013-02-02 18:48:00,
2013-02-02 13:54:00,19.3,14.7,30.15,WSW,249,2.0,10.0,82,0.00,,,0.00,188,Wunderground v.1.15,2013-02-02 18:54:00,
2013-02-02 14:00:00,19.5,15.2,30.14,South,187,2.0,2.0,83,0.00,,,0.00,181,Wunderground v.1.15,2013-02-02 19:00:00,
2013-02-02 14:06:00,19.6,15.3,30.14,SSW,202,2.0,10.0,83,0.00,,,0.00,174,Wunderground v.1.15,2013-02-02 19:06:00,
2013-02-02 14:12:00,19.7,15.4,30.14,SSW,211,2.0,10.0,83,0.00,,,0.00,169,Wunderground v.1.15,2013-02-02 19:12:00,
2013-02-02 14:18:00,19.7,15.4,30.13,SSW,210,2.0,10.0,83,0.00,,,0.00,160,Wunderground v.1.15,2013-02-02 19:18:00,
2013-02-02 14:24:00,19.7,15.4,30.13,SSW,196,3.0,10.0,83,0.00,,,0.00,153,Wunderground v.1.15,2013-02-02 19:24:00,
2013-02-02 14:30:00,19.7,15.6,30.13,WSW,257,2.0,2.0,84,0.00,,,0.00,156,Wunderground v.1.15,2013-02-02 19:30:00,
2013-02-02 14:36:00,19.8,16.0,30.13,West,277,1.0,10.0,85,0.00,,,0.00,135,Wunderground v.1.15,2013-02-02 19:36:00,
2013-02-02 14:42:00,19.9,16.4,30.12,South,171,1.0,3.0,86,0.00,,,0.00,130,Wunderground v.1.15,2013-02-02 19:42:00,
2013-02-02 14:48:00,19.8,16.3,30.12,South,175,1.0,10.0,86,0.00,,,0.00,121,Wunderground v.1.15,2013-02-02 19:48:00,
2013-02-02 14:54:00,20.0,16.5,30.12,South,185,1.0,10.0,86,0.00,,,0.00,120,Wunderground v.1.15,2013-02-02 19:54:00,
2013-02-02 15:00:00,20.1,16.6,30.12,SSW,202,1.0,10.0,86,0.00,,,0.00,102,Wunderground v.1.15,2013-02-02 20:00:00,
2013-02-02 15:06:00,20.2,17.0,30.11,SSW,201,1.0,10.0,87,0.00,,,0.00,104,Wunderground v.1.15,2013-02-02 20:06:00,
2013-02-02 15:12:00,20.2,17.0,30.11,SSW,198,1.0,10.0,87,0.00,,,0.00,93,Wunderground v.1.15,2013-02-02 20:12:00,
2013-02-02 15:18:00,20.3,17.3,30.11,SSW,198,0.0,10.0,88,0.00,,,0.00,83,Wunderground v.1.15,2013-02-02 20:18:00,
2013-02-02 15:24:00,20.3,17.3,30.11,West,276,0.0,10.0,88,0.00,,,0.00,76,Wunderground v.1.15,2013-02-02 20:24:00,
2013-02-02 15:30:00,20.4,17.4,30.10,West,276,0.0,10.0,88,0.00,,,0.00,69,Wunderground v.1.15,2013-02-02 20:30:00,
2013-02-02 15:36:00,20.4,17.4,30.10,South,184,1.0,10.0,88,0.00,,,0.00,65,Wunderground v.1.15,2013-02-02 20:36:00,
2013-02-02 15:42:00,20.5,17.5,30.10,WSW,254,0.0,10.0,88,0.00,,,0.00,60,Wunderground v.1.15,2013-02-02 20:42:00,
2013-02-02 15:48:00,20.6,17.6,30.10,WSW,254,0.0,10.0,88,0.00,,,0.00,51,Wunderground v.1.15,2013-02-02 20:48:00,
2013-02-02 15:54:00,20.7,18.0,30.10,WSW,254,0.0,10.0,89,0.00,,,0.00,46,Wunderground v.1.15,2013-02-02 20:54:00,
2013-02-02 16:00:00,20.9,18.2,30.09,WSW,254,0.0,10.0,89,0.00,,,0.00,40,Wunderground v.1.15,2013-02-02 21:00:00,
2013-02-02 16:06:00,20.9,17.9,30.09,WNW,290,1.0,10.0,88,0.00,,,0.00,37,Wunderground v.1.15,2013-02-02 21:06:00,
2013-02-02 16:12:00,20.8,18.1,30.09,WNW,290,1.0,10.0,89,0.00,,,0.00,35,Wunderground v.1.15,2013-02-02 21:12:00,
2013-02-02 16:18:00,20.9,18.2,30.09,WNW,290,0.0,10.0,89,0.00,,,0.00,28,Wunderground v.1.15,2013-02-02 21:18:00,
2013-02-02 16:24:00,20.9,18.2,30.09,WNW,290,0.0,10.0,89,0.00,,,0.00,21,Wunderground v.1.15,2013-02-02 21:24:00,
2013-02-02 16:30:00,20.9,18.2,30.09,WNW,292,0.0,10.0,89,0.00,,,0.00,18,Wunderground v.1.15,2013-02-02 21:30:00,
2013-02-02 16:36:00,20.9,18.2,30.09,WNW,292,0.0,10.0,89,0.00,,,0.00,16,Wunderground v.1.15,2013-02-02 21:36:00,
2013-02-02 16:42:00,20.9,18.4,30.09,WNW,292,0.0,10.0,90,0.00,,,0.00,14,Wunderground v.1.15,2013-02-02 21:42:00,
2013-02-02 16:48:00,20.9,18.4,30.09,WNW,292,0.0,10.0,90,0.00,,,0.00,12,Wunderground v.1.15,2013-02-02 21:48:00,
2013-02-02 16:54:00,20.9,18.4,30.09,WNW,292,0.0,10.0,90,0.00,,,0.00,11,Wunderground v.1.15,2013-02-02 21:54:00,
2013-02-02 17:00:00,20.9,18.4,30.09,WNW,292,0.0,10.0,90,0.00,,,0.00,7,Wunderground v.1.15,2013-02-02 22:00:00,
2013-02-02 17:06:00,20.9,18.7,30.09,WNW,292,0.0,10.0,91,0.00,,,0.00,7,Wunderground v.1.15,2013-02-02 22:06:00,
2013-02-02 17:12:00,20.8,18.6,30.09,WNW,292,0.0,10.0,91,0.00,,,0.00,5,Wunderground v.1.15,2013-02-02 22:12:00,
2013-02-02 17:18:00,20.7,18.7,30.09,WNW,292,0.0,10.0,92,0.00,,,0.00,0,Wunderground v.1.15,2013-02-02 22:18:00,
2013-02-02 17:24:00,20.7,18.7,30.09,WNW,292,0.0,10.0,92,0.00,,,0.00,0,Wunderground v.1.15,2013-02-02 22:24:00,
2013-02-02 17:30:00,20.7,18.7,30.09,WNW,292,0.0,10.0,92,0.00,,,0.00,0,Wunderground v.1.15,2013-02-02 22:30:00,
2013-02-02 17:36:00,20.7,18.7,30.09,WNW,292,0.0,10.0,92,0.00,,,0.00,0,Wunderground v.1.15,2013-02-02 22:36:00,
2013-02-02 17:42:00,20.7,18.7,30.09,WNW,292,0.0,10.0,92,0.00,,,0.00,0,Wunderground v.1.15,2013-02-02 22:42:00,
2013-02-02 17:48:00,20.7,18.7,30.09,WNW,292,0.0,10.0,92,0.00,,,0.00,0,Wunderground v.1.15,2013-02-02 22:48:00,
2013-02-02 17:54:00,20.7,19.0,30.09,WNW,292,0.0,10.0,93,0.00,,,0.00,0,Wunderground v.1.15,2013-02-02 22:54:00,
2013-02-02 18:00:00,20.7,19.0,30.09,WNW,292,0.0,10.0,93,0.00,,,0.00,0,Wunderground v.1.15,2013-02-02 23:00:00,
2013-02-02 18:06:00,20.7,19.0,30.09,WNW,292,0.0,10.0,93,0.00,,,0.00,0,Wunderground v.1.15,2013-02-02 23:06:00,
2013-02-02 18:12:00,20.7,19.0,30.09,WNW,292,0.0,10.0,93,0.00,,,0.00,0,Wunderground v.1.15,2013-02-02 23:12:00,
2013-02-02 18:18:00,20.7,19.0,30.09,WNW,292,0.0,10.0,93,0.00,,,0.00,0,Wunderground v.1.15,2013-02-02 23:18:00,
2013-02-02 18:24:00,20.7,19.0,30.09,WNW,292,0.0,10.0,93,0.00,,,0.00,0,Wunderground v.1.15,2013-02-02 23:24:00,
2013-02-02 18:30:00,20.7,19.0,30.09,WNW,292,0.0,10.0,93,0.00,,,0.00,0,Wunderground v.1.15,2013-02-02 23:30:00,
2013-02-02 18:36:00,20.7,19.0,30.09,WNW,292,0.0,10.0,93,0.00,,,0.00,0,Wunderground v.1.15,2013-02-02 23:36:00,
2013-02-02 18:42:00,20.7,19.0,30.09,WNW,292,0.0,10.0,93,0.00,,,0.00,0,Wunderground v.1.15,2013-02-02 23:42:00,
2013-02-02 18:48:00,20.7,19.0,30.09,WNW,292,0.0,10.0,93,0.00,,,0.00,0,Wunderground v.1.15,2013-02-02 23:48:00,
2013-02-02 18:54:00,20.7,19.0,30.09,WNW,292,0.0,10.0,93,0.00,,,0.00,0,Wunderground v.1.15,2013-02-02 23:54:00,
2013-02-02 19:00:00,20.7,19.0,30.09,WNW,292,0.0,10.0,93,0.00,,,0.00,0,Wunderground v.1.15,2013-02-03 00:00:00,
2013-02-02 19:06:00,20.6,18.9,30.09,WNW,292,0.0,10.0,93,0.00,,,0.00,0,Wunderground v.1.15,2013-02-03 00:06:00,
2013-02-02 19:12:00,20.6,18.9,30.09,WNW,292,0.0,10.0,93,0.00,,,0.00,0,Wunderground v.1.15,2013-02-03 00:12:00,
2013-02-02 19:18:00,20.5,18.8,30.09,WNW,292,0.0,10.0,93,0.00,,,0.00,0,Wunderground v.1.15,2013-02-03 00:18:00,
2013-02-02 19:24:00,20.5,18.8,30.09,WNW,292,0.0,10.0,93,0.00,,,0.00,0,Wunderground v.1.15,2013-02-03 00:24:00,
2013-02-02 19:30:00,20.4,18.7,30.09,WNW,292,0.0,10.0,93,0.00,,,0.00,0,Wunderground v.1.15,2013-02-03 00:30:00,
2013-02-02 19:36:00,20.5,18.8,30.09,WNW,292,0.0,10.0,93,0.00,,,0.00,0,Wunderground v.1.15,2013-02-03 00:36:00,
2013-02-02 19:42:00,20.4,18.7,30.09,WNW,292,0.0,10.0,93,0.00,,,0.00,0,Wunderground v.1.15,2013-02-03 00:42:00,
2013-02-02 19:48:00,20.5,18.8,30.09,WNW,292,0.0,10.0,93,0.00,,,0.00,0,Wunderground v.1.15,2013-02-03 00:48:00,
2013-02-02 19:54:00,20.4,18.7,30.09,WNW,292,0.0,10.0,93,0.00,,,0.00,0,Wunderground v.1.15,2013-02-03 00:54:00,
2013-02-02 20:00:00,20.4,18.7,30.09,WNW,292,0.0,10.0,93,0.00,,,0.00,0,Wunderground v.1.15,2013-02-03 01:00:00,
2013-02-02 20:06:00,20.4,18.7,30.09,WNW,292,0.0,10.0,93,0.00,,,0.00,0,Wunderground v.1.15,2013-02-03 01:06:00,
2013-02-02 20:12:00,20.4,18.7,30.09,WNW,292,0.0,10.0,93,0.00,,,0.00,0,Wunderground v.1.15,2013-02-03 01:12:00,
2013-02-02 20:18:00,20.4,18.7,30.09,WNW,292,0.0,10.0,93,0.00,,,0.00,0,Wunderground v.1.15,2013-02-03 01:18:00,
2013-02-02 20:24:00,20.4,18.7,30.09,WNW,292,0.0,10.0,93,0.00,,,0.00,0,Wunderground v.1.15,2013-02-03 01:24:00,
2013-02-02 20:30:00,20.3,18.6,30.09,WNW,292,0.0,10.0,93,0.00,,,0.00,0,Wunderground v.1.15,2013-02-03 01:30:00,
2013-02-02 20:36:00,20.3,18.6,30.09,WNW,292,0.0,10.0,93,0.00,,,0.00,0,Wunderground v.1.15,2013-02-03 01:36:00,
2013-02-02 20:42:00,20.3,18.6,30.09,WNW,292,0.0,10.0,93,0.00,,,0.00,0,Wunderground v.1.15,2013-02-03 01:42:00,
2013-02-02 20:48:00,20.3,18.6,30.08,WNW,292,0.0,10.0,93,0.00,,,0.00,0,Wunderground v.1.15,2013-02-03 01:48:00,
2013-02-02 20:54:00,20.3,18.6,30.08,WNW,292,0.0,10.0,93,0.00,,,0.00,0,Wunderground v.1.15,2013-02-03 01:54:00,
2013-02-02 21:00:00,20.2,18.5,30.08,WNW,292,0.0,10.0,93,0.00,,,0.00,0,Wunderground v.1.15,2013-02-03 02:00:00,
2013-02-02 21:06:00,20.2,18.5,30.08,WNW,292,0.0,10.0,93,0.00,,,0.00,0,Wunderground v.1.15,2013-02-03 02:06:00,
2013-02-02 21:12:00,20.1,18.4,30.08,WNW,292,0.0,10.0,93,0.00,,,0.00,0,Wunderground v.1.15,2013-02-03 02:12:00,
2013-02-02 21:18:00,20.0,18.3,30.08,WNW,292,0.0,10.0,93,0.00,,,0.00,0,Wunderground v.1.15,2013-02-03 02:18:00,
2013-02-02 21:24:00,19.9,18.2,30.08,WNW,292,0.0,10.0,93,0.00,,,0.00,0,Wunderground v.1.15,2013-02-03 02:24:00,
2013-02-02 21:30:00,19.9,18.2,30.08,WNW,292,0.0,10.0,93,0.00,,,0.00,0,Wunderground v.1.15,2013-02-03 02:30:00,
2013-02-02 21:36:00,19.8,18.1,30.08,WNW,292,0.0,10.0,93,0.00,,,0.00,0,Wunderground v.1.15,2013-02-03 02:36:00,
2013-02-02 21:42:00,19.8,18.1,30.08,WNW,292,0.0,10.0,93,0.00,,,0.00,0,Wunderground v.1.15,2013-02-03 02:42:00,
2013-02-02 21:48:00,19.8,18.1,30.08,WNW,292,0.0,10.0,93,0.00,,,0.00,0,Wunderground v.1.15,2013-02-03 02:48:00,
2013-02-02 21:54:00,19.7,18.0,30.08,WNW,292,0.0,10.0,93,0.00,,,0.00,0,Wunderground v.1.15,2013-02-03 02:54:00,
2013-02-02 22:00:00,19.7,18.0,30.08,WNW,292,0.0,10.0,93,0.00,,,0.00,0,Wunderground v.1.15,2013-02-03 03:00:00,
2013-02-02 22:06:00,19.6,17.9,30.07,WNW,292,0.0,10.0,93,0.00,,,0.00,0,Wunderground v.1.15,2013-02-03 03:06:00,
2013-02-02 22:12:00,19.6,17.9,30.07,WNW,292,0.0,10.0,93,0.00,,,0.00,0,Wunderground v.1.15,2013-02-03 03:12:00,
2013-02-02 22:18:00,19.6,17.9,30.07,WNW,292,0.0,10.0,93,0.00,,,0.00,0,Wunderground v.1.15,2013-02-03 03:18:00,
2013-02-02 22:24:00,19.6,17.9,30.07,WNW,292,0.0,10.0,93,0.00,,,0.00,0,Wunderground v.1.15,2013-02-03 03:24:00,
2013-02-02 22:30:00,19.6,17.9,30.07,WNW,292,0.0,10.0,93,0.00,,,0.00,0,Wunderground v.1.15,2013-02-03 03:30:00,
2013-02-02 22:36:00,19.6,17.9,30.07,WNW,292,0.0,10.0,93,0.00,,,0.00,0,Wunderground v.1.15,2013-02-03 03:36:00,
2013-02-02 22:42:00,19.6,17.9,30.07,WNW,292,0.0,10.0,93,0.00,,,0.00,0,Wunderground v.1.15,2013-02-03 03:42:00,
2013-02-02 22:48:00,19.5,17.8,30.07,WNW,292,0.0,10.0,93,0.00,,,0.00,0,Wunderground v.1.15,2013-02-03 03:48:00,
2013-02-02 22:54:00,19.5,17.8,30.07,WNW,292,0.0,10.0,93,0.00,,,0.00,0,Wunderground v.1.15,2013-02-03 03:54:00,
2013-02-02 23:00:00,19.5,18.1,30.06,WNW,292,0.0,10.0,94,0.00,,,0.00,0,Wunderground v.1.15,2013-02-03 04:00:00,
2013-02-02 23:06:00,19.4,18.0,30.06,WNW,292,0.0,10.0,94,0.00,,,0.00,0,Wunderground v.1.15,2013-02-03 04:06:00,
2013-02-02 23:12:00,19.5,18.1,30.06,WNW,292,0.0,10.0,94,0.00,,,0.00,0,Wunderground v.1.15,2013-02-03 04:12:00,
2013-02-02 23:18:00,19.5,18.1,30.06,WNW,292,0.0,10.0,94,0.00,,,0.00,0,Wunderground v.1.15,2013-02-03 04:18:00,
2013-02-02 23:24:00,19.4,18.0,30.06,WNW,292,0.0,10.0,94,0.00,,,0.00,0,Wunderground v.1.15,2013-02-03 04:24:00,
2013-02-02 23:30:00,19.4,18.0,30.06,WNW,292,0.0,10.0,94,0.00,,,0.00,0,Wunderground v.1.15,2013-02-03 04:30:00,
2013-02-02 23:36:00,19.3,17.9,30.06,WNW,292,0.0,10.0,94,0.00,,,0.00,0,Wunderground v.1.15,2013-02-03 04:36:00,
2013-02-02 23:42:00,19.3,17.9,30.06,WNW,292,0.0,10.0,94,0.00,,,0.00,0,Wunderground v.1.15,2013-02-03 04:42:00,
2013-02-02 23:48:00,19.3,17.9,30.06,WNW,292,0.0,10.0,94,0.00,,,0.00,0,Wunderground v.1.15,2013-02-03 04:48:00,
2013-02-02 23:54:00,19.3,17.9,30.06,WNW,292,0.0,10.0,94,0.00,,,0.00,0,Wunderground v.1.15,2013-02-03 04:54:00,